This is the latest recevied weather packets stored in our database for station/object LZ1NAG-10. If no packets are shown the sender has not sent any weather packets the latest 10 day(s).
| Time | Temp. | Humidity | Pressure | Rain* | Wind** | Luminosity | Snow |
|---|---|---|---|---|---|---|---|
| 1777612580 | 3.33° C | 53% | 1026.9 hPa | - | - | - | - |
| 1777611680 | 2.78° C | 53% | 1026.8 hPa | - | - | - | - |
| 1777610780 | 1.67° C | 54% | 1026.7 hPa | - | - | - | - |
| 1777609880 | 1.67° C | 54% | 1026.7 hPa | - | - | - | - |
| 1777608979 | 0.56° C | 54% | 1026.6 hPa | - | - | - | - |
| 1777608079 | 0.56° C | 55% | 1026.6 hPa | - | - | - | - |
| 1777607179 | 0.56° C | 54% | 1026.6 hPa | - | - | - | - |
| 1777606279 | 0.56° C | 55% | 1026.7 hPa | - | - | - | - |
| 1777605379 | 1.11° C | 54% | 1026.5 hPa | - | - | - | - |
| 1777604479 | 0.56° C | 55% | 1026.7 hPa | - | - | - | - |
| 1777603578 | 0° C | 55% | 1026.6 hPa | - | - | - | - |
| 1777602678 | 0.56° C | 54% | 1026.7 hPa | - | - | - | - |
| 1777601778 | 0.56° C | 54% | 1026.7 hPa | - | - | - | - |
| 1777600878 | 0.56° C | 55% | 1026.7 hPa | - | - | - | - |
| 1777599977 | 0.56° C | 55% | 1026.7 hPa | - | - | - | - |
| 1777599077 | 0.56° C | 55% | 1026.7 hPa | - | - | - | - |
| 1777598177 | 0.56° C | 55% | 1026.7 hPa | - | - | - | - |
| 1777597277 | 0.56° C | 55% | 1026.8 hPa | - | - | - | - |
| 1777596377 | 0.56° C | 54% | 1026.8 hPa | - | - | - | - |
| 1777595477 | 0.56° C | 55% | 1026.8 hPa | - | - | - | - |
| 1777594576 | 0.56° C | 54% | 1026.8 hPa | - | - | - | - |
| 1777593676 | 0.56° C | 54% | 1026.8 hPa | - | - | - | - |
| 1777592776 | 1.11° C | 55% | 1026.7 hPa | - | - | - | - |
| 1777591876 | 1.11° C | 55% | 1026.9 hPa | - | - | - | - |
| 1777590976 | 1.11° C | 54% | 1027 hPa | - | - | - | - |
* Rain since midnight (hover to see other rain measurements)
** Current wind speed in m/s (hover to see current wind gust speed)